When you browse on this site, cookies collect data to enhance your experience and personalize the content and advertising you see.
Visit our Privacy Policy to learn more. By continuing to use the site, you agree to this use of cookies and data.

Meteo pe oră la Dzierzanow

Astăzi, 20 Septembrie, Duminică

Timp Temperatura Precipitaţii Vânt Presiune Umiditate
00:00 +12°C° 0 mm 3 m/s 756 mmHg 56%
01:00 +12°C° 0 mm 3 m/s 756 mmHg 57%
02:00 +12°C° 0 mm 3 m/s 756 mmHg 57%
03:00 +12°C° 0 mm 3 m/s 756 mmHg 58%
04:00 +12°C° 0 mm 3 m/s 755 mmHg 58%
05:00 +12°C° 0 mm 3 m/s 755 mmHg 59%
06:00 +12°C° 0 mm 3 m/s 756 mmHg 61%
07:00 +12°C° 0 mm 3 m/s 756 mmHg 61%
08:00 +14°C° 0 mm 3 m/s 756 mmHg 57%
09:00 +16°C° 0 mm 3 m/s 756 mmHg 54%
10:00 +18°C° 0 mm 4 m/s 756 mmHg 50%
11:00 +19°C° 0 mm 4 m/s 755 mmHg 48%
12:00 +20°C° 0 mm 4 m/s 755 mmHg 46%
13:00 +21°C° 0 mm 4 m/s 755 mmHg 44%
14:00 +21°C° 0 mm 4 m/s 755 mmHg 46%
15:00 +20°C° 0 mm 3 m/s 754 mmHg 48%
16:00 +20°C° 0 mm 3 m/s 754 mmHg 50%
17:00 +19°C° 0 mm 3 m/s 754 mmHg 54%
18:00 +17°C° 0 mm 3 m/s 754 mmHg 58%
19:00 +16°C° 0 mm 3 m/s 754 mmHg 62%
20:00 +14°C° 0 mm 3 m/s 754 mmHg 63%
21:00 +14°C° 0 mm 3 m/s 754 mmHg 64%
22:00 +13°C° 0 mm 3 m/s 754 mmHg 66%
23:00 +14°C° 0 mm 2 m/s 754 mmHg 68%

Mâine, 21 Septembrie, Luni

Timp Temperatura Precipitaţii Vânt Presiune Umiditate
00:00 +13°C° 0 mm 2 m/s 754 mmHg 71%
01:00 +13°C° 0 mm 2 m/s 754 mmHg 73%
02:00 +13°C° 0 mm 2 m/s 754 mmHg 76%
03:00 +12°C° 0 mm 2 m/s 754 mmHg 79%
04:00 +12°C° 0 mm 2 m/s 754 mmHg 82%
05:00 +12°C° 0 mm 2 m/s 754 mmHg 81%
06:00 +13°C° 0 mm 2 m/s 754 mmHg 80%
07:00 +13°C° 0 mm 2 m/s 754 mmHg 79%
08:00 +16°C° 0 mm 2 m/s 754 mmHg 71%
09:00 +18°C° 0 mm 2 m/s 754 mmHg 63%
10:00 +20°C° 0 mm 2 m/s 754 mmHg 55%
11:00 +21°C° 0 mm 2 m/s 754 mmHg 50%
12:00 +24°C° 0 mm 2 m/s 754 mmHg 45%
13:00 +25°C° 0 mm 2 m/s 753 mmHg 40%
14:00 +25°C° 0 mm 1 m/s 753 mmHg 41%
15:00 +25°C° 0 mm 1 m/s 753 mmHg 42%
16:00 +25°C° 0 mm 1 m/s 752 mmHg 42%
17:00 +23°C° 0 mm 2 m/s 752 mmHg 46%
18:00 +20°C° 0 mm 2 m/s 752 mmHg 50%
19:00 +19°C° 0 mm 2 m/s 752 mmHg 53%
20:00 +18°C° 0 mm 2 m/s 752 mmHg 54%
21:00 +18°C° 0 mm 2 m/s 752 mmHg 56%
22:00 +17°C° 0 mm 2 m/s 752 mmHg 57%
23:00 +17°C° 0 mm 2 m/s 752 mmHg 58%

Poimâine, 22 Septembrie, Marţi

Timp Temperatura Precipitaţii Vânt Presiune Umiditate
00:00 +16°C° 0 mm 2 m/s 752 mmHg 59%
01:00 +16°C° 0 mm 2 m/s 752 mmHg 60%
02:00 +16°C° 0 mm 2 m/s 751 mmHg 61%
03:00 +16°C° 0 mm 3 m/s 751 mmHg 61%
04:00 +14°C° 0 mm 3 m/s 751 mmHg 61%
05:00 +16°C° 0 mm 3 m/s 751 mmHg 61%
06:00 +16°C° 0 mm 3 m/s 751 mmHg 62%
07:00 +16°C° 0 mm 3 m/s 751 mmHg 62%
08:00 +19°C° 0 mm 4 m/s 751 mmHg 56%
09:00 +21°C° 0 mm 4 m/s 750 mmHg 50%
10:00 +23°C° 0 mm 5 m/s 750 mmHg 43%
11:00 +25°C° 0 mm 5 m/s 750 mmHg 41%
12:00 +26°C° 0 mm 5 m/s 750 mmHg 39%
13:00 +27°C° 0 mm 5 m/s 749 mmHg 37%
14:00 +27°C° 0 mm 5 m/s 749 mmHg 39%
15:00 +27°C° 0 mm 4 m/s 748 mmHg 42%
16:00 +27°C° 0 mm 3 m/s 748 mmHg 45%
17:00 +25°C° 0 mm 3 m/s 748 mmHg 49%
18:00 +22°C° 0 mm 3 m/s 748 mmHg 53%
19:00 +20°C° 0 mm 3 m/s 748 mmHg 57%
20:00 +20°C° 0 mm 3 m/s 747 mmHg 58%
21:00 +19°C° 0 mm 3 m/s 747 mmHg 59%
22:00 +19°C° 0 mm 3 m/s 747 mmHg 60%
23:00 +18°C° 0 mm 3 m/s 747 mmHg 59%

23 Septembrie, Miercuri

Timp Temperatura Precipitaţii Vânt Presiune Umiditate
00:00 +18°C° 0 mm 3 m/s 747 mmHg 59%
01:00 +18°C° 0 mm 3 m/s 746 mmHg 59%
02:00 +17°C° 0 mm 3 m/s 746 mmHg 60%
03:00 +17°C° 0 mm 3 m/s 746 mmHg 60%
04:00 +17°C° 0 mm 3 m/s 746 mmHg 60%
05:00 +17°C° 0 mm 3 m/s 746 mmHg 61%
06:00 +17°C° 0 mm 3 m/s 745 mmHg 62%
07:00 +17°C° 0 mm 3 m/s 745 mmHg 62%
08:00 +19°C° 0 mm 3 m/s 745 mmHg 58%
09:00 +21°C° 0 mm 4 m/s 745 mmHg 54%
10:00 +23°C° 0 mm 4 m/s 745 mmHg 50%
11:00 +25°C° 0 mm 4 m/s 745 mmHg 50%
12:00 +26°C° 0 mm 5 m/s 745 mmHg 50%
13:00 +27°C° 0 mm 5 m/s 745 mmHg 49%
14:00 +26°C° 0 mm 4 m/s 744 mmHg 51%
15:00 +26°C° 0 mm 4 m/s 744 mmHg 53%
16:00 +26°C° 0 mm 3 m/s 744 mmHg 55%
17:00 +24°C° 0.2 mm 3 m/s 744 mmHg 62%
18:00 +23°C° 0.2 mm 2 m/s 744 mmHg 68%
19:00 +20°C° 0.2 mm 2 m/s 744 mmHg 75%
20:00 +20°C° 0.4 mm 2 m/s 744 mmHg 78%
21:00 +19°C° 0.4 mm 2 m/s 744 mmHg 80%
22:00 +19°C° 0.4 mm 2 m/s 744 mmHg 83%
23:00 +18°C° 0.3 mm 2 m/s 745 mmHg 84%

24 Septembrie, Joi

Timp Temperatura Precipitaţii Vânt Presiune Umiditate
00:00 +18°C° 0.3 mm 2 m/s 745 mmHg 85%
01:00 +18°C° 0.3 mm 2 m/s 745 mmHg 87%
02:00 +18°C° 0 mm 2 m/s 745 mmHg 86%
03:00 +17°C° 0 mm 2 m/s 745 mmHg 86%
04:00 +17°C° 0 mm 2 m/s 745 mmHg 85%
05:00 +17°C° 0 mm 2 m/s 745 mmHg 84%
06:00 +18°C° 0 mm 2 m/s 745 mmHg 83%
07:00 +18°C° 0 mm 2 m/s 745 mmHg 82%
08:00 +19°C° 0 mm 2 m/s 745 mmHg 76%
09:00 +21°C° 0 mm 3 m/s 746 mmHg 69%
10:00 +24°C° 0 mm 3 m/s 746 mmHg 63%
11:00 +24°C° 0 mm 3 m/s 746 mmHg 58%
12:00 +25°C° 0 mm 3 m/s 746 mmHg 54%
13:00 +26°C° 0 mm 3 m/s 746 mmHg 49%
14:00 +26°C° 0 mm 3 m/s 746 mmHg 51%
15:00 +26°C° 0 mm 2 m/s 746 mmHg 53%
16:00 +25°C° 0 mm 2 m/s 746 mmHg 55%
17:00 +24°C° 0 mm 2 m/s 746 mmHg 60%
18:00 +21°C° 0 mm 2 m/s 746 mmHg 64%
19:00 +20°C° 0 mm 2 m/s 747 mmHg 69%
20:00 +20°C° 0 mm 1 m/s 747 mmHg 71%
21:00 +20°C° 0 mm 1 m/s 747 mmHg 73%
22:00 +19°C° 0 mm 1 m/s 747 mmHg 75%
23:00 +19°C° 0 mm 1 m/s 746 mmHg 77%

25 Septembrie, Vineri

Timp Temperatura Precipitaţii Vânt Presiune Umiditate
00:00 +18°C° 0 mm 2 m/s 746 mmHg 78%
01:00 +17°C° 0 mm 3 m/s 745 mmHg 79%
02:00 +17°C° 0 mm 3 m/s 745 mmHg 81%
03:00 +17°C° 0 mm 3 m/s 744 mmHg 82%
04:00 +17°C° 0 mm 3 m/s 743 mmHg 83%
05:00 +18°C° 0 mm 4 m/s 743 mmHg 81%
06:00 +18°C° 0 mm 4 m/s 742 mmHg 78%
07:00 +17°C° 0 mm 5 m/s 742 mmHg 76%
08:00 +20°C° 0 mm 6 m/s 742 mmHg 71%
09:00 +21°C° 0 mm 6 m/s 741 mmHg 66%
10:00 +22°C° 0 mm 7 m/s 741 mmHg 61%
11:00 +21°C° 0.1 mm 6 m/s 741 mmHg 66%
12:00 +20°C° 0.1 mm 5 m/s 741 mmHg 72%
13:00 +17°C° 0.1 mm 5 m/s 741 mmHg 78%
14:00 +16°C° 1.2 mm 5 m/s 741 mmHg 82%
15:00 +14°C° 1.2 mm 6 m/s 740 mmHg 86%
16:00 +12°C° 1.2 mm 7 m/s 740 mmHg 90%
17:00 +13°C° 1.7 mm 6 m/s 741 mmHg 90%
18:00 +11°C° 1.7 mm 6 m/s 741 mmHg 90%
19:00 +11°C° 1.7 mm 6 m/s 741 mmHg 91%
20:00 +12°C° 1 mm 5 m/s 742 mmHg 87%
21:00 +12°C° 1 mm 4 m/s 742 mmHg 83%
22:00 +11°C° 1 mm 4 m/s 742 mmHg 79%
23:00 +11°C° 0 mm 3 m/s 742 mmHg 80%
Arată mai mult